Location: Unspecified
(34.8953°N, 0.0000°E)
Time: 06:05:37
(UTC+00:00)

ACS3 Solar Sail - Visible Passes

Search period start: 05 April 2026 00:00
Search period end: 15 April 2026 00:00
Orbit: 874 x 980 km, 97.2° (Epoch: 29 March)

Date Brightness Start Highest point End Pass type
(mag) Time Alt. Az. Time Alt. Az. Time Alt. Az.
5 Apr 3.9 01:55:24 10° N 01:56:56 18° N 01:56:56 18° N visible
6 Apr 4.5 00:23:38 10° NE 00:23:41 10° NE 00:23:41 10° NE visible
6 Apr 3.8 02:05:41 10° N 02:07:17 18° NNW 02:07:17 18° NNW visible
7 Apr 4.4 00:33:24 10° NNE 00:33:58 13° NNE 00:33:58 13° NNE visible
7 Apr 3.8 02:15:57 10° N 02:17:33 17° NNW 02:17:33 17° NNW visible
8 Apr 4.2 00:43:10 10° NNE 00:44:12 15° NNE 00:44:12 15° NNE visible
8 Apr 3.8 02:26:14 10° NNW 02:27:47 16° NNW 02:27:47 16° NNW visible
9 Apr 4.1 00:52:58 10° NNE 00:54:22 18° NNE 00:54:22 18° NNE visible
9 Apr 3.9 02:36:34 10° NNW 02:37:57 15° NNW 02:37:57 15° NNW visible
10 Apr 3.9 01:02:44 10° NNE 01:04:28 20° NNE 01:04:28 20° NNE visible
10 Apr 3.9 02:46:59 10° NNW 02:48:03 13° NW 02:48:03 13° NW visible
11 Apr 3.8 01:12:31 10° NNE 01:14:31 22° NNE 01:14:31 22° NNE visible
11 Apr 4.0 02:57:36 10° NW 02:58:05 11° NW 02:58:05 11° NW visible
12 Apr 3.7 01:22:18 10° N 01:24:31 24° N 01:24:31 24° N visible
13 Apr 3.6 01:32:03 10° N 01:34:26 25° N 01:34:26 25° N visible
14 Apr 4.4 00:00:43 10° NE 00:00:44 10° NE 00:00:44 10° NE visible
14 Apr 3.5 01:41:47 10° N 01:44:18 25° N 01:44:18 25° N visible
